アラン-リゴー彗星

49P/Arend-Rigaux (2025)

English version
Home page
Updated on December 17, 2021

---------------------------------------------------------------------

・ プロフィール

・ 軌道要素

Epoch 2025 Mar. 26.0 TT = JDT 2460760.5                                         
T 2025 Apr. 10.61727 TT                                 Rudenko                 
q   1.4313512            (2000.0)            P               Q                  
n   0.14610850     Peri.  332.93351     -0.05196438     -0.95676743             
a   3.5701440      Node   118.79162     +0.96514783     -0.12171584             
e   0.5990775      Incl.   19.05906     +0.25649437     +0.26416159             
P   6.75                                                                        
From 3684 observations 1951 Apr. 6-2020 July 20, mean residual 0".7.            
     Nongravitational parameters A1 = +0.01, A2 = -0.0004.                      

・ 星図

・ 光度変化

        H = 13.5  G = 0.15                       [    ,-102]  (              〜2024年12月29日)
        m1 = 8.0 + 5 logΔ + 30.0 log r(t - 10)  [-102, 109]  (2024年12月29日〜2025年 7月28日)
        H = 13.5  G = 0.15                       [ 109,    ]  (2025年 7月28日〜              )

---------------------------------------------------------------------

軌道要素はM.P.E.C. 2021-F20に掲載されたものです。
星図はステラナビゲータ Ver.10 (アストロアーツ) で作成したものです。
光度グラフはComet for Windowsで作成したものです。

---------------------------------------------------------------------

Copyright(C) Seiichi Yoshida (comet@aerith.net). All rights reserved.